Retour au catalogue

STARLINK-35303

ActifCommunicationsVLEO
NORAD 65860·PAYLOAD·🇺🇸 United States

Lancé Oct 3, 2025 depuis Vandenberg Space Force Base

Loading…

Prochains Passages (prochaines 24 heures)

TLE

FraisSource: CelesTrak SupGP

Époque: Sep 14, 2026, 15:47 UTC

1 65860C 25223G   26257.65812500  .00028499  00000+0  84195-3 0  2576
2 65860  53.1575 132.9961 0000945  93.9157 355.0955 15.34379367    17

Suivez STARLINK-35303 en temps réel avec AllMySat

Download on the App Store